Retour au catalogue

STARLINK-30495

ActifCommunicationsVLEO
NORAD 57968·PAYLOAD·🇺🇸 United States

Lancé Sep 30, 2023 depuis Cape Canaveral Space Force Station

Loading…

Prochains Passages (prochaines 24 heures)

TLE

FraisSource: CelesTrak SupGP

Époque: Sep 15, 2026, 02:58 UTC

1 57968C 23151E   26258.12409722  .00038471  00000+0  13931-2 0  2586
2 57968  43.0032 346.1968 0001500 262.6968 244.8384 15.27567892    17

Suivez STARLINK-30495 en temps réel avec AllMySat

Download on the App Store